Location: 5810 Zion Rd, Cleves, OH 45002, USA
(39.1922°N, 84.7113°W)
Time: 21:44:08
(UTC-05:00)

Transit 4A - Visible Passes

Search period start: 07 December 2019 00:00
Search period end: 17 December 2019 00:00
Orbit: 870 x 975 km, 66.8° (Epoch: 07 December)

Date Brightness Start Highest point End Pass type
(mag) Time Alt. Az. Time Alt. Az. Time Alt. Az.
07 Dec 8.0 18:04:23 10° SSW 18:10:39 88° WNW 18:16:46 10° NNE visible
07 Dec 10.1 19:53:52 10° W 19:57:49 17° NW 20:01:16 11° N visible
08 Dec 8.4 18:13:52 10° SW 18:20:01 61° WNW 18:26:03 10° NNE visible
08 Dec 10.3 20:05:07 10° WNW 20:07:37 12° NW 20:10:07 10° NNW visible
09 Dec 9.0 18:23:37 10° SW 18:29:28 42° NW 18:35:12 10° NNE visible
10 Dec 9.5 18:33:40 10° WSW 18:39:00 30° NW 18:44:14 10° N visible
11 Dec 9.9 18:44:03 10° W 18:48:38 21° NW 18:53:09 10° N visible
12 Dec 10.2 18:54:51 10° WNW 18:58:21 15° NW 19:01:48 10° N visible
13 Dec 10.3 19:06:35 10° NW 19:08:12 11° NW 19:09:47 10° NNW visible
16 Dec 10.0 17:44:55 10° W 17:49:08 19° NW 17:53:18 10° N visible
